Weather History for KSPF - February, 2012

Change the Weather History Date:

Saturday, February 11, 2012

  Actual Average (KEFC) Record (KEFC)
Temperature  
Mean Temperature 10 °F -  
Max Temperature 23 °F 38 °F 67 °F (1951)
Min Temperature -2 °F 12 °F -17 °F (1959)
Degree Days  
Heating Degree Days 54    
Moisture  
Dew Point -4 °F    
Average Humidity 59    
Maximum Humidity 78    
Minimum Humidity 39    
Precipitation  
Precipitation 0.00 in - - ()
Sea Level Pressure  
Sea Level Pressure 30.38 in    
Wind  
Wind Speed 5 mph (SE)    
Max Wind Speed 14 mph    
Max Gust Speed 18 mph    
Visibility 10 miles    
Events      
Averages and records for this station are not official NWS values.
T = Trace of Precipitation, MM = Missing Value Source: NWS Daily Summary

Daily Weather History Graph

Daily Weather History Graph

Search for Another Location

Airport or City:

Trip Planner

Search our weather history database for the weather conditions in past years. The results will help you decide how hot, cold, wet, or windy it might be!

Date:

Astronomy

Feb. 11, 2012 Rise Set
Actual Time 8:01 AM CST 6:17 PM CST
Civil Twilight 7:31 AM CST 6:48 PM CST
Nautical Twilight 6:57 AM CST 7:22 PM CST
Astronomical Twilight 6:23 AM CST 7:56 PM CST
Moon 11:23 PM CST (2/11) 9:31 AM CST (2/11)
Length of Visible Light 11h 16m
Length of Day
10h 16m
Waning Gibbous, 82% of the Moon is Illuminated
Feb 11
Waning Gibbous
Feb 14
Last Quarter
Feb 21
New
Feb 29
First Quarter
Mar 8
Full

Hourly Weather History & Observations

Time (CST) Temp. Windchill Dew Point Humidity Pressure Visibility Wind Dir Wind Speed Gust Speed Precip Events Conditions
12:15 AM -0.4 °F -12.0 °F -7.6 °F 72% 30.42 in 10.0 mi SW 5.8 mph - N/A   Clear
12:35 AM -0.4 °F -10.4 °F -7.6 °F 72% 30.42 in 10.0 mi SSW 4.6 mph - N/A   Clear
12:55 AM -2.2 °F - -7.6 °F 78% 30.43 in 10.0 mi Calm Calm - N/A   Clear
1:15 AM -2.2 °F -12.5 °F -7.6 °F 78% 30.42 in 10.0 mi SSW 4.6 mph - N/A   Clear
1:55 AM -2.2 °F -10.4 °F -7.6 °F 78% 30.42 in 10.0 mi SW 3.5 mph - N/A   Clear
2:35 AM -0.4 °F -15.7 °F -9.4 °F 66% 30.43 in 10.0 mi South 9.2 mph - N/A   Clear
2:55 AM -2.2 °F -15.6 °F -9.4 °F 71% 30.43 in 10.0 mi South 6.9 mph - N/A   Clear
3:15 AM -0.4 °F -14.7 °F -9.4 °F 66% 30.43 in 10.0 mi SSW 8.1 mph - N/A   Clear
3:35 AM -0.4 °F -13.4 °F -9.4 °F 66% 30.42 in 10.0 mi SW 6.9 mph - N/A   Clear
3:55 AM -0.4 °F - -9.4 °F 66% 30.42 in 10.0 mi Calm Calm - N/A   Clear
4:15 AM -0.4 °F - -9.4 °F 66% 30.42 in 10.0 mi Calm Calm - N/A   Clear
4:35 AM -0.4 °F -10.4 °F -9.4 °F 66% 30.42 in 10.0 mi SSW 4.6 mph - N/A   Clear
4:55 AM -2.2 °F -16.8 °F -9.4 °F 71% 30.42 in 10.0 mi South 8.1 mph - N/A   Clear
5:15 AM -2.2 °F -15.6 °F -9.4 °F 71% 30.42 in 10.0 mi SSW 6.9 mph - N/A   Clear
5:55 AM -0.4 °F -10.4 °F -11.2 °F 60% 30.42 in 10.0 mi SSW 4.6 mph - N/A   Clear
6:15 AM -2.2 °F -12.5 °F -11.2 °F 66% 30.42 in 10.0 mi SSW 4.6 mph - N/A   Clear
6:35 AM -2.2 °F -14.2 °F -11.2 °F 66% 30.41 in 10.0 mi South 5.8 mph - N/A   Clear
6:55 AM -2.2 °F -14.2 °F -11.2 °F 66% 30.42 in 10.0 mi SSW 5.8 mph - N/A   Clear
7:15 AM -2.2 °F -10.4 °F -11.2 °F 66% 30.42 in 10.0 mi West 3.5 mph - N/A   Clear
7:35 AM -2.2 °F -10.4 °F -11.2 °F 66% 30.42 in 10.0 mi West 3.5 mph - N/A   Clear
7:55 AM -2.2 °F - -11.2 °F 66% 30.43 in 10.0 mi Calm Calm - N/A   Clear
8:15 AM -2.2 °F -10.4 °F -11.2 °F 66% 30.43 in 10.0 mi SSW 3.5 mph - N/A   Clear
8:35 AM -0.4 °F - -9.4 °F 66% 30.43 in 10.0 mi Calm Calm - N/A   Clear
8:55 AM -0.4 °F - -7.6 °F 72% 30.43 in 10.0 mi Calm Calm - N/A   Clear
9:15 AM 5.0 °F - -4.0 °F 66% 30.41 in 10.0 mi Calm Calm - N/A   Clear
9:35 AM 5.0 °F - -2.2 °F 72% 30.40 in 10.0 mi Calm Calm - N/A   Clear
9:55 AM 8.6 °F - -2.2 °F 62% 30.40 in 10.0 mi Calm Calm - N/A   Clear
10:15 AM 10.4 °F - -2.2 °F 57% 30.40 in 10.0 mi Calm Calm - N/A   Clear
10:35 AM 10.4 °F - -2.2 °F 57% 30.39 in 10.0 mi Calm Calm - N/A   Clear
10:55 AM 14.0 °F - -2.2 °F 49% 30.39 in 10.0 mi Calm Calm - N/A   Clear
11:15 AM 14.0 °F 8.2 °F -0.4 °F 53% 30.39 in 10.0 mi NNE 3.5 mph - N/A   Clear
11:35 AM 14.0 °F 8.2 °F -2.2 °F 49% 30.39 in 10.0 mi NE 3.5 mph - N/A   Clear
11:55 AM 15.8 °F 7.2 °F -0.4 °F 49% 30.39 in 10.0 mi NE 5.8 mph - N/A   Clear
12:15 PM 15.8 °F 5.1 °F 1.4 °F 53% 30.37 in 10.0 mi NE 8.1 mph - N/A   Clear
12:35 PM 17.6 °F 6.4 °F 3.2 °F 53% 30.37 in 10.0 mi NE 9.2 mph - N/A   Clear
12:55 PM 17.6 °F 6.4 °F 1.4 °F 49% 30.36 in 10.0 mi NE 9.2 mph - N/A   Clear
1:15 PM 17.6 °F 9.3 °F 5.0 °F 58% 30.35 in 10.0 mi NNE 5.8 mph - N/A   Clear
1:35 PM 19.4 °F 8.6 °F 5.0 °F 54% 30.34 in 10.0 mi NE 9.2 mph - N/A   Clear
1:55 PM 19.4 °F 10.4 °F 5.0 °F 54% 30.33 in 10.0 mi ENE 6.9 mph - N/A   Clear
2:15 PM 19.4 °F 11.5 °F 1.4 °F 46% 30.33 in 10.0 mi SE 5.8 mph - N/A   Clear
2:35 PM 21.2 °F 11.7 °F 1.4 °F 42% 30.32 in 10.0 mi East 8.1 mph - N/A   Clear
2:55 PM 23.0 °F 13.9 °F 1.4 °F 39% 30.31 in 10.0 mi East 8.1 mph - N/A   Clear
3:15 PM 23.0 °F 11.7 °F 1.4 °F 39% 30.31 in 10.0 mi ENE 11.5 mph - N/A   Clear
3:35 PM 23.0 °F 12.4 °F 1.4 °F 39% 30.30 in 10.0 mi East 10.4 mph - N/A   Clear
3:55 PM 23.0 °F 10.6 °F 1.4 °F 39% 30.30 in 10.0 mi East 13.8 mph 18.4 mph N/A   Clear
4:15 PM 23.0 °F 11.1 °F 1.4 °F 39% 30.29 in 10.0 mi East 12.7 mph - N/A   Clear
4:35 PM 23.0 °F 11.7 °F 3.2 °F 43% 30.28 in 10.0 mi East 11.5 mph - N/A   Clear
4:55 PM 23.0 °F 12.4 °F 5.0 °F 46% 30.28 in 10.0 mi East 10.4 mph - N/A   Clear
5:15 PM 23.0 °F 12.4 °F 6.8 °F 50% 30.27 in 10.0 mi East 10.4 mph - N/A   Clear
5:55 PM 19.4 °F 12.8 °F 6.8 °F 58% 30.26 in 10.0 mi ENE 4.6 mph - N/A   Clear
6:15 PM 17.6 °F - 6.8 °F 63% 30.26 in 10.0 mi Calm Calm - N/A   Clear
6:35 PM 15.8 °F 8.6 °F 6.8 °F 68% 30.26 in 10.0 mi SSW 4.6 mph - N/A   Clear
6:55 PM 14.0 °F 2.9 °F 5.0 °F 67% 30.26 in 10.0 mi SSW 8.1 mph - N/A   Clear
7:15 PM 14.0 °F 3.9 °F 5.0 °F 67% 30.25 in 10.0 mi SSW 6.9 mph - N/A   Clear
7:35 PM 14.0 °F 1.2 °F 5.0 °F 67% 30.24 in 10.0 mi SSW 10.4 mph - N/A   Clear
7:55 PM 12.2 °F -1.0 °F 3.2 °F 67% 30.23 in 10.0 mi SSW 10.4 mph - N/A   Clear
8:35 PM 10.4 °F -0.4 °F 1.4 °F 67% 30.21 in 10.0 mi SSW 6.9 mph - N/A   Clear
8:55 PM 10.4 °F -3.3 °F 3.2 °F 73% 30.20 in 10.0 mi SSW 10.4 mph - N/A   Clear
9:15 PM 10.4 °F -1.5 °F 3.2 °F 73% 30.19 in 10.0 mi South 8.1 mph - N/A   Clear
9:55 PM 10.4 °F -0.4 °F 1.4 °F 67% 30.17 in 10.0 mi SW 6.9 mph - N/A   Clear
10:15 PM 10.4 °F 2.2 °F 1.4 °F 67% 30.16 in 10.0 mi West 4.6 mph - N/A   Clear
10:35 PM 10.4 °F 4.0 °F 3.2 °F 73% 30.15 in 10.0 mi WNW 3.5 mph - N/A   Clear
10:55 PM 8.6 °F 2.0 °F 1.4 °F 73% 30.13 in 10.0 mi WSW 3.5 mph - N/A   Clear
11:15 PM 10.4 °F 4.0 °F 1.4 °F 67% 30.12 in 10.0 mi SW 3.5 mph - N/A   Clear
11:35 PM 10.4 °F - 1.4 °F 67% 30.11 in 10.0 mi Calm Calm - N/A   Clear
11:55 PM 8.6 °F - 1.4 °F 73% 30.10 in 10.0 mi Calm Calm - N/A   Clear